Weather History for KFMN - July, 2014

Change the Weather History Date:

Sunday, July 27, 2014

  Actual Average Record
Temperature  
Mean Temperature 80 °F -  
Max Temperature 95 °F 89 °F 111 °F (1996)
Min Temperature 64 °F 60 °F 54 °F (1993)
Cooling Degree Days 15    
Growing Degree Days 30 (Base 50)    
Moisture  
Dew Point 48 °F    
Average Humidity 37    
Maximum Humidity 84    
Minimum Humidity 8    
Precipitation  
Precipitation 0.01 in - - ()
Sea Level Pressure  
Sea Level Pressure 30.06 in    
Wind  
Wind Speed 8 mph (South)    
Max Wind Speed 37 mph    
Max Gust Speed 47 mph    
Visibility 10 miles    
Events Rain , Thunderstorm    
Averages and records for this station are not official NWS values.
T = Trace of Precipitation, MM = Missing Value Source: NWS Daily Summary

Daily Weather History Graph

Daily Weather History Graph

Search for Another Location

Airport or City:

Trip Planner

Search our weather history database for the weather conditions in past years. The results will help you decide how hot, cold, wet, or windy it might be!

Date:

Astronomy

Jul. 27, 2014 Rise Set
Actual Time 6:14 AM MDT 8:23 PM MDT
Civil Twilight 5:45 AM MDT 8:52 PM MDT
Nautical Twilight 5:10 AM MDT 9:27 PM MDT
Astronomical Twilight 4:31 AM MDT 10:06 PM MDT
Moon 7:01 AM MDT (7/27) 8:38 PM MDT (7/27)
Length of Visible Light 15h 06m
Length of Day
14h 08m
New Moon, 1% of the Moon is Illuminated
Jul 27
New Moon
Aug 3
First Quarter
Aug 10
Full
Aug 17
Last Quarter
Aug 25
New

Hourly Weather History & Observations

Time (MDT) Temp. Dew Point Humidity Pressure Visibility Wind Dir Wind Speed Gust Speed Precip Events Conditions
12:53 AM 75.0 °F 39.9 °F 28% 29.94 in 10.0 mi Calm Calm - N/A   Clear
1:53 AM 75.9 °F 42.1 °F 30% 29.95 in 10.0 mi NE 4.6 mph - N/A   Clear
2:53 AM 77.0 °F 46.9 °F 34% 29.96 in 10.0 mi South 19.6 mph 26.5 mph N/A   Clear
3:53 AM 73.9 °F 48.0 °F 40% 29.99 in 10.0 mi SSE 5.8 mph - N/A   Clear
4:53 AM 73.9 °F 48.9 °F 41% 30.01 in 10.0 mi SSW 6.9 mph - N/A   Clear
5:53 AM 71.1 °F 48.9 °F 45% 30.02 in 10.0 mi Calm Calm - N/A   Scattered Clouds
6:53 AM 73.0 °F 50.0 °F 44% 30.05 in 10.0 mi Calm Calm - N/A   Clear
7:53 AM 75.9 °F 48.9 °F 38% 30.07 in 10.0 mi WNW 8.1 mph - N/A   Partly Cloudy
8:53 AM 77.0 °F 48.0 °F 36% 30.10 in 10.0 mi WNW 9.2 mph - N/A   Partly Cloudy
9:53 AM 79.0 °F 46.9 °F 32% 30.09 in 10.0 mi WNW 9.2 mph 24.2 mph 0.00 in Rain Light Rain
11:53 AM 87.1 °F 46.0 °F 24% 30.05 in 10.0 mi NW 8.1 mph - N/A   Clear
12:53 PM 91.0 °F 43.0 °F 19% 30.03 in 10.0 mi NW 5.8 mph - N/A   Clear
1:53 PM 93.0 °F 39.9 °F 16% 29.99 in 10.0 mi West 13.8 mph 20.7 mph N/A   Clear
2:53 PM 91.9 °F 41.0 °F 17% 29.95 in 10.0 mi WSW 10.4 mph - N/A   Clear
3:53 PM 93.0 °F 39.0 °F 15% 29.94 in 10.0 mi SW 8.1 mph - N/A   Clear
4:53 PM 93.9 °F 37.9 °F 14% 29.92 in 10.0 mi Variable 3.5 mph - N/A   Clear
5:53 PM 93.0 °F 37.9 °F 15% 29.94 in 10.0 mi Calm Calm - N/A   Clear
6:36 PM 82.9 °F 48.0 °F 29% 30.20 in 9.0 mi East 36.8 mph 47.2 mph N/A   Mostly Cloudy
6:53 PM 78.1 °F 53.1 °F 42% 30.03 in 10.0 mi East 29.9 mph 43.7 mph 0.00 in Rain Light Rain
7:23 PM 77.0 °F 53.1 °F 43% 30.29 in 10.0 mi East 17.3 mph 27.6 mph 0.00 in Thunderstorm Overcast
7:38 PM 75.9 °F 54.0 °F 46% 30.31 in 10.0 mi ESE 18.4 mph - 0.00 in   Mostly Cloudy
7:53 PM 75.0 °F 55.0 °F 50% 30.13 in 10.0 mi ESE 19.6 mph 24.2 mph 0.00 in   Overcast
8:53 PM 68.0 °F 59.0 °F 73% 30.21 in 10.0 mi South 11.5 mph - 0.00 in Rain Light Rain
9:53 PM 66.0 °F 59.0 °F 78% 30.22 in 10.0 mi South 8.1 mph - 0.00 in Rain Light Rain
10:53 PM 68.0 °F 55.9 °F 65% 30.19 in 10.0 mi Calm Calm - 0.00 in   Overcast
11:53 PM 64.9 °F 60.1 °F 84% 30.18 in 10.0 mi SSE 5.8 mph - 0.01 in   Overcast